This demonstration page uses our WeatherBlox Daily Observations layout. Learn more.

38.88101, -77.10428

Hourly Observations for January 11, 2019

Temp ( °F °C ) Dew Point ( °F °C ) Humidity (%) Winds ( mph kmh ) Pressure ( in mb ) Visibility ( mi km ) Precip ( " mm )
12:52 am 00:52 Clear 30 -1.1 13 -10.6 49 49 NNW 15 24 30.18 1022 10 16.09344 0 0
1:52 am 01:52 Clear 30 -1.1 12 -11.1 47 47 NNW 22 35 30.18 1022 10 16.09344 0 0
2:52 am 02:52 Mostly Clear 29 -1.7 12 -11.1 49 49 NW 21 33 30.21 1023 10 16.09344 0 0
3:52 am 03:52 Mostly Clear 29 -1.7 12 -11.1 49 49 NW 20 31 30.21 1023 10 16.09344 0 0
4:52 am 04:52 Clear 29 -1.7 13 -10.6 51 51 NW 20 31 30.24 1024 10 16.09344 0 0
5:52 am 05:52 Clear 29 -1.7 12 -11.1 49 49 NW 17 28 30.27 1025 10 16.09344 0 0
6:52 am 06:52 Clear 29 -1.7 12 -11.1 49 49 NW 20 31 30.27 1025 10 16.09344 0 0
7:52 am 07:52 Sunny 29 -1.7 12 -11.1 49 49 NNW 12 19 30.3 1026 10 16.09344 0 0
8:52 am 08:52 Mostly Sunny 31 -0.6 13 -10.6 47 47 NW 15 24 30.33 1027 10 16.09344 0 0
9:52 am 09:52 Sunny 33 0.6 13 -10.6 43 43 NW 16 26 30.36 1028 10 16.09344 0 0
10:52 am 10:52 Partly Cloudy 35 1.7 13 -10.6 40 40 NW 15 24 30.39 1029 10 16.09344 0 0
11:52 am 11:52 Sunny 36 2.2 14 -10 40 40 NW 13 20 30.36 1028 10 16.09344 0 0
12:52 pm 12:52 Partly Cloudy 37 2.8 13 -10.6 37 37 WNW 17 28 30.33 1027 10 16.09344 0 0
1:52 pm 13:52 Partly Cloudy 39 3.9 13 -10.6 34 34 NNW 15 24 30.33 1027 10 16.09344 0 0
2:52 pm 14:52 Partly Cloudy 39 3.9 13 -10.6 34 34 NW 15 24 30.33 1027 10 16.09344 0 0
3:52 pm 15:52 Partly Cloudy 38 3.3 12 -11.1 34 34 NW 12 19 30.36 1028 9 14.484096 0 0
4:52 pm 16:52 Partly Cloudy 37 2.8 12 -11.1 36 36 WNW 13 20 30.36 1028 10 16.09344 0 0
5:52 pm 17:52 Partly Cloudy 36 2.2 12 -11.1 37 37 NW 12 19 30.39 1029 10 16.09344 0 0
6:52 pm 18:52 Clear 35 1.7 12 -11.1 38 38 NW 9 15 30.42 1030 10 16.09344 0 0
7:52 pm 19:52 Partly Cloudy 34 1.1 13 -10.6 42 42 NNW 8 13 30.42 1030 10 16.09344 0 0
8:52 pm 20:52 Partly Cloudy 33 0.6 13 -10.6 43 43 NNW 8 13 30.45 1031 10 16.09344 0 0
9:52 pm 21:52 Partly Cloudy 32 0 14 -10 47 47 NNW 7 11 30.45 1031 10 16.09344 0 0
10:52 pm 22:52 Cloudy 32 0 13 -10.6 45 45 NNW 7 11 30.45 1031 10 16.09344 0 0
11:52 pm 23:52 Cloudy 30 -1.1 14 -10 51 51 N 5 7 30.45 1031 10 16.09344 0 0

Powered by AerisWeather